Japanese version Home page |
Updated on September 3, 2006 |
Profile
|
Orbital ElementsT 2005 July 5.6925 TT MPC q 2.861471 (2000.0) P Q z +0.001652 Peri. 117.7617 -0.2773872 -0.4661617 Node 302.8000 -0.0073847 +0.8754108 e 0.995274 Incl. 91.9309 +0.9607298 -0.1278638 >From 95 observations 2005 Dec. 7-2006 Feb. 2.
|
Magnitudes Graphm1 = 11.0 + 5 log d + 10.0 log r
|
The orbital elements are published on M.P.E.C. 2006-C23.
|